Santa Fe, NM

2:07 AM MST on February 24, 2018 (GMT -0700)
Santa Fe Municipal

Weather History for KSAF - November, 2012

Change the Weather History Date:

Thursday, November 22, 2012

  Actual Average Record
Temperature  
Mean Temperature 44 °F -  
Max Temperature 61 °F 49 °F 66 °F (2006)
Min Temperature 27 °F 31 °F 17 °F (1999)
Degree Days  
Heating Degree Days 21    
Moisture  
Dew Point 17 °F    
Average Humidity 44    
Maximum Humidity 75    
Minimum Humidity 15    
Precipitation  
Precipitation 0.00 in - - ()
Sea Level Pressure  
Sea Level Pressure 30.16 in    
Wind  
Wind Speed 9 mph (North)    
Max Wind Speed 16 mph    
Max Gust Speed -    
Visibility 10 miles    
Events      
Averages and records for this station are not official NWS values.
T = Trace of Precipitation, MM = Missing Value Source: NWS Daily Summary

Daily Weather History Graph

Daily Weather History Graph

Search for Another Location

Airport or City:

Trip Planner

Search our weather history database for the weather conditions in past years. The results will help you decide how hot, cold, wet, or windy it might be!

Date:

Astronomy

Nov. 22, 2012 Rise Set
Actual Time 6:47 AM MST 4:53 PM MST
Civil Twilight 6:19 AM MST 5:21 PM MST
Nautical Twilight 5:48 AM MST 5:52 PM MST
Astronomical Twilight 5:18 AM MST 6:22 PM MST
Moon 1:31 PM MST (11/22) 1:20 AM MST (11/22)
Length of Visible Light 11h 01m
Length of Day
10h 06m
Waxing Gibbous, 72% of the Moon is Illuminated
Nov 22
Waxing Gibbous
Nov 28
Full
Dec 6
Last Quarter
Dec 13
New
Dec 19
First Quarter

Hourly Weather History & Observations

Time (MST) Temp. Windchill Dew Point Humidity Pressure Visibility Wind Dir Wind Speed Gust Speed Precip Events Conditions
12:53 AM 27.0 °F 21.6 °F 19.9 °F 75% 30.07 in 10.0 mi North 4.6 mph - N/A   Clear
1:53 AM 32.0 °F 24.2 °F 21.9 °F 66% 30.05 in 10.0 mi NNE 9.2 mph - N/A   Clear
2:53 AM 32.0 °F 24.2 °F 21.9 °F 66% 30.06 in 10.0 mi North 9.2 mph - N/A   Clear
3:53 AM 30.9 °F 21.7 °F 21.0 °F 67% 30.06 in 10.0 mi North 11.5 mph - N/A   Clear
4:53 AM 28.9 °F 18.2 °F 19.9 °F 69% 30.09 in 10.0 mi North 13.8 mph - N/A   Clear
5:53 AM 30.0 °F 21.1 °F 19.0 °F 64% 30.12 in 10.0 mi North 10.4 mph - N/A   Clear
6:53 AM 30.0 °F 19.5 °F 18.0 °F 61% 30.12 in 10.0 mi North 13.8 mph - N/A   Clear
7:53 AM 35.1 °F 26.4 °F 19.0 °F 52% 30.13 in 10.0 mi North 12.7 mph - N/A   Clear
8:53 AM 36.0 °F 27.5 °F 18.0 °F 48% 30.17 in 10.0 mi North 12.7 mph - N/A   Clear
9:53 AM 36.0 °F 26.3 °F 19.0 °F 50% 30.23 in 10.0 mi North 16.1 mph - N/A   Clear
10:53 AM 46.9 °F - 19.9 °F 34% 30.17 in 10.0 mi North 13.8 mph - N/A   Clear
11:53 AM 52.0 °F - 19.0 °F 27% 30.13 in 10.0 mi North 16.1 mph - N/A   Clear
12:53 PM 57.0 °F - 18.0 °F 22% 30.12 in 10.0 mi North 9.2 mph - N/A   Clear
1:53 PM 60.1 °F - 15.1 °F 17% 30.08 in 10.0 mi NNW 9.2 mph - N/A   Clear
2:53 PM 61.0 °F - 12.9 °F 15% 30.08 in 10.0 mi NW 5.8 mph - N/A   Clear
3:53 PM 60.1 °F - 14.0 °F 16% 30.11 in 10.0 mi North 5.8 mph - N/A   Clear
5:53 PM 48.9 °F - 15.1 °F 26% 30.18 in 10.0 mi WNW 4.6 mph - N/A   Clear
6:53 PM 44.1 °F - 15.1 °F 31% 30.23 in 10.0 mi Calm Calm - N/A   Clear
7:53 PM 36.0 °F 29.6 °F 14.0 °F 41% 30.27 in 10.0 mi NNE 8.1 mph - N/A   Clear
8:53 PM 32.0 °F 25.6 °F 12.0 °F 44% 30.31 in 10.0 mi North 6.9 mph - N/A   Clear
9:53 PM 32.0 °F 26.4 °F 12.0 °F 44% 30.33 in 10.0 mi North 5.8 mph - N/A   Clear
10:53 PM 39.0 °F 34.8 °F 12.0 °F 33% 30.29 in 10.0 mi ESE 5.8 mph - N/A   Clear
11:53 PM 35.1 °F 30.1 °F 15.1 °F 44% 30.29 in 10.0 mi SSW 5.8 mph - N/A   Clear